Location: Cicognara
(44.9500°N, 10.4667°E)
Time: 14:39:44
(UTC+00:00)

Aureole 3 - Pass Details

Date: 20 June 2021
Orbit: 382 x 1227 km, 82.5° (Epoch: 03 August)

Event Time Altitude Azimuth Distance (km) Brightness Sun altitude
Rises 22:47:40 0° 358° (N) 2,607 8.3 -21.2°
Reaches altitude 10° 22:49:40 10° 6° (N) 1,815 7.1 -21.3°
Maximum altitude 22:53:29 44° 79° (E) 878 4.3 -21.3°
Enters shadow 22:54:32 37° 115° (ESE) 1,015 4.4 -21.4°
